Home > Weather > Cranbrook > Past weeks

Flag for Canada Past Weather in Cranbrook, British Columbia, Canada — Yesterday and Last 2 Weeks

Now
57 °F

Passing clouds.


Feels Like: 57 °F
Forecast: 54 / 89 °F
Wind: 5 mph from West

Location: Cranbrook

Current Time: Jun 28, 2016 at 7:21:15 AM

Latest Report: Jun 28, 2016 at 6:00 AM


Visibility: 25 mi

Pressure: 30.11 "Hg (26.95 "Hg at 933m altitude)

Humidity: 63%

Dew Point: 45 °F

Location of CranbrookLocation

Past Weather in Cranbrook — Graph

°F

Cranbrook Temperature Yesterday

Maximum temperature yesterday: 82 °F (at 4:00 PM)
Minimum temperature yesterday: 52 °F (at 6:00 AM)
Average temperature yesterday: 68 °F

High & Low Weather Summary for the Past Weeks

 TemperatureHumidityPressure
High82 °F (Jun 27, 4:00 PM)100% (Jun 15, 2:00 AM)30.37 "Hg (Jun 15, 2:00 AM)
Low34 °F (Jun 15, 2:00 AM)13% (Jun 20, 5:00 PM)29.71 "Hg (Jun 14, 4:00 AM)
Average56 °F58%30.05 "Hg
* Reported Jun 13 6:00 AM — Jun 28 6:00 AM, Cranbrook, Weather by CustomWeather, © 2016

Note: Actual official high and low records may vary slightly from our data, if they occured in-between our weather recording intervals... More about our weather records

Advertising

Cranbrook Weather History for the Previous 24 Hours

Scroll right to see more
 ConditionsComfort  
Time TempWeatherWind HumidityBarometerVisibility
6:00 AM
Tue, Jun 28
57 °FPassing clouds.5 mph63%30.11 "Hg25 mi
5:00 AM61 °FPassing clouds.8 mph55%30.09 "Hg25 mi
4:00 AM61 °FPassing clouds.6 mph55%30.09 "Hg25 mi
3:00 AM61 °FPassing clouds.8 mph55%30.09 "Hg25 mi
2:00 AM64 °FPassing clouds.6 mph49%30.08 "Hg25 mi
1:00 AM64 °FPassing clouds.9 mph49%30.09 "Hg25 mi
12:00 AM66 °FPassing clouds.7 mph49%30.09 "Hg25 mi
11:00 PM
Mon, Jun 27
70 °FPassing clouds.6 mph40%30.09 "Hg25 mi
10:00 PM66 °FPassing clouds.2 mph46%30.08 "Hg25 mi
9:00 PM79 °FPassing clouds.3 mph26%30.07 "Hg15 mi
8:00 PM82 °FScattered clouds.5 mph23%30.08 "Hg25 mi
7:00 PM82 °FScattered clouds.5 mph21%30.10 "Hg25 mi
6:00 PM82 °FPartly sunny.6 mph23%30.12 "Hg25 mi
5:00 PM82 °FScattered clouds.8 mph23%30.13 "Hg25 mi
4:00 PM82 °FScattered clouds.8 mph23%30.15 "Hg25 mi
3:00 PM81 °FPassing clouds.6 mph24%30.17 "Hg25 mi
2:00 PM79 °FScattered clouds.2 mph26%30.19 "Hg25 mi
1:00 PM75 °FScattered clouds.6 mph34%30.22 "Hg25 mi
12:00 PM72 °FPartly sunny.7 mph41%30.24 "Hg25 mi
11:00 AM66 °FPartly sunny.2 mph46%30.26 "Hg25 mi
10:00 AM64 °FPartly sunny.No wind49%30.29 "Hg25 mi
9:00 AM61 °FScattered clouds.2 mph52%30.28 "Hg25 mi
8:00 AM57 °FScattered clouds.2 mph59%30.29 "Hg25 mi
7:00 AM54 °FPassing clouds.6 mph67%30.29 "Hg25 mi
Weather by CustomWeather, © 2016

See weather overviewHow to use our weather pages